DAL1559 KLAX-KSFO

Flight info

Callsign DAL1559
Flight time 0h 57m
Altitude 38000
Route SUMMR2 STOKD SERFR SERFR4
Aircraft A319/M-SDE3FGHIRWY/LB1

Departure

Time 2026-04-20 20:21
Airport Los Angeles International Airport (KLAX)

Arrival

Time 2026-04-20 21:19
Airport San Francisco International Airport (KSFO)
Time Latitude Longitude Altitude Speed Heading
2026-04-20 19:57 33.94705 -118.40744 93 ft 0 kts 192°
2026-04-20 20:08 33.94715 -118.40741 94 ft 5 kts 191°
2026-04-20 20:08 33.94747 -118.40735 96 ft 4 kts 180°
2026-04-20 20:08 33.94761 -118.40737 96 ft 2 kts 129°
2026-04-20 20:09 33.94765 -118.40749 95 ft 2 kts 87°
2026-04-20 20:09 33.94765 -118.40762 93 ft 2 kts 81°
2026-04-20 20:09 33.94763 -118.40772 92 ft 0 kts 82°
2026-04-20 20:13 33.94765 -118.40758 93 ft 6 kts 82°
2026-04-20 20:14 33.94778 -118.40643 93 ft 14 kts 85°
2026-04-20 20:14 33.94819 -118.40598 95 ft 9 kts
2026-04-20 20:14 33.94866 -118.40583 95 ft 4 kts 65°
2026-04-20 20:14 33.94870 -118.40539 94 ft 6 kts 84°
2026-04-20 20:15 33.94875 -118.40484 94 ft 7 kts 83°
2026-04-20 20:15 33.94881 -118.40418 95 ft 8 kts 81°
2026-04-20 20:15 33.94883 -118.40397 94 ft 0 kts 83°
2026-04-20 20:16 33.94885 -118.40382 94 ft 5 kts 83°
2026-04-20 20:16 33.94892 -118.40302 94 ft 14 kts 83°
2026-04-20 20:17 33.94907 -118.40162 94 ft 18 kts 82°
2026-04-20 20:17 33.94922 -118.40018 95 ft 12 kts 83°
2026-04-20 20:17 33.94949 -118.39925 95 ft 7 kts 37°
2026-04-20 20:17 33.94950 -118.39925 95 ft 0 kts 34°
2026-04-20 20:20 33.94953 -118.39922 95 ft 1 kts 34°
2026-04-20 20:20 33.95011 -118.39913 94 ft 17 kts 348°
2026-04-20 20:20 33.95037 -118.40003 93 ft 14 kts 262°
2026-04-20 20:21 33.95002 -118.40331 98 ft 77 kts 263°
2026-04-20 20:21 33.94907 -118.41249 100 ft 141 kts 262°
2026-04-20 20:21 33.94770 -118.42520 444 ft 162 kts 261°
2026-04-20 20:21 33.94617 -118.43889 1159 ft 164 kts 261°
2026-04-20 20:22 33.94527 -118.44806 1769 ft 163 kts 261°
2026-04-20 20:22 33.94351 -118.46683 2484 ft 184 kts 263°
2026-04-20 20:22 33.94268 -118.48316 2837 ft 209 kts 266°
2026-04-20 20:22 33.94215 -118.50163 3297 ft 233 kts 268°
2026-04-20 20:23 33.94127 -118.52217 3807 ft 257 kts 265°
2026-04-20 20:23 33.93976 -118.54425 4602 ft 269 kts 264°
2026-04-20 20:23 33.93797 -118.56678 5563 ft 273 kts 263°
2026-04-20 20:23 33.93610 -118.58967 6560 ft 276 kts 262°
2026-04-20 20:24 33.93420 -118.61278 7491 ft 279 kts 261°
2026-04-20 20:24 33.93229 -118.63622 8450 ft 282 kts 261°
2026-04-20 20:24 33.93039 -118.65983 9398 ft 285 kts 261°
2026-04-20 20:24 33.92850 -118.68384 10259 ft 293 kts 261°
2026-04-20 20:25 33.92649 -118.70930 10623 ft 315 kts 261°
2026-04-20 20:25 33.92512 -118.72688 11044 ft 322 kts 261°
2026-04-20 20:25 33.92303 -118.75398 11833 ft 327 kts 261°
2026-04-20 20:25 33.92091 -118.78135 12680 ft 330 kts 261°
2026-04-20 20:26 33.91879 -118.80889 13524 ft 333 kts 261°
2026-04-20 20:26 33.91711 -118.83685 14289 ft 338 kts 266°
2026-04-20 20:26 33.91793 -118.86528 15020 ft 341 kts 268°
2026-04-20 20:26 33.91883 -118.89397 15748 ft 344 kts 268°
2026-04-20 20:27 33.91969 -118.92286 16485 ft 346 kts 268°
2026-04-20 20:27 33.92054 -118.95194 17209 ft 349 kts 267°
2026-04-20 20:27 33.92140 -118.98120 17955 ft 351 kts 268°
2026-04-20 20:27 33.92524 -119.01057 18618 ft 361 kts 279°
2026-04-20 20:28 33.93434 -119.03916 19213 ft 372 kts 292°
2026-04-20 20:28 33.94784 -119.06610 19829 ft 378 kts 297°
2026-04-20 20:28 33.96185 -119.09299 20435 ft 381 kts 296°
2026-04-20 20:28 33.97595 -119.12025 21036 ft 384 kts 296°
2026-04-20 20:29 33.99011 -119.14768 21626 ft 387 kts 296°
2026-04-20 20:29 34.00554 -119.17461 22202 ft 396 kts 304°
2026-04-20 20:29 34.02500 -119.19854 22775 ft 405 kts 315°
2026-04-20 20:29 34.04784 -119.21896 23369 ft 411 kts 320°
2026-04-20 20:30 34.07127 -119.23898 23906 ft 414 kts 320°
2026-04-20 20:30 34.09492 -119.25926 24379 ft 418 kts 320°
2026-04-20 20:30 34.11863 -119.27966 24828 ft 421 kts 320°
2026-04-20 20:30 34.14256 -119.30025 25286 ft 424 kts 320°
2026-04-20 20:31 34.16664 -119.32098 25742 ft 426 kts 320°
2026-04-20 20:31 34.19087 -119.34185 26195 ft 429 kts 320°
2026-04-20 20:31 34.21522 -119.36284 26628 ft 431 kts 320°
2026-04-20 20:31 34.23967 -119.38393 27056 ft 434 kts 320°
2026-04-20 20:32 34.26436 -119.40526 27479 ft 436 kts 320°
2026-04-20 20:32 34.28907 -119.42663 27900 ft 439 kts 320°
2026-04-20 20:32 34.31396 -119.44819 28322 ft 441 kts 320°
2026-04-20 20:32 34.33872 -119.46967 28724 ft 444 kts 320°
2026-04-20 20:33 34.36420 -119.49178 29146 ft 447 kts 320°
2026-04-20 20:33 34.38954 -119.51375 29547 ft 449 kts 321°
2026-04-20 20:33 34.41430 -119.53698 29935 ft 450 kts 314°
2026-04-20 20:33 34.43627 -119.56323 30317 ft 450 kts 310°
2026-04-20 20:34 34.45825 -119.59028 30649 ft 452 kts 310°
2026-04-20 20:34 34.48062 -119.61784 30996 ft 454 kts 310°
2026-04-20 20:34 34.50285 -119.64524 31309 ft 456 kts 310°
2026-04-20 20:34 34.52517 -119.67276 31630 ft 458 kts 310°
2026-04-20 20:35 34.54753 -119.70034 31994 ft 459 kts 310°
2026-04-20 20:35 34.56989 -119.72789 32473 ft 457 kts 310°
2026-04-20 20:35 34.59187 -119.75500 32941 ft 456 kts 310°
2026-04-20 20:35 34.61407 -119.78241 33378 ft 455 kts 310°
2026-04-20 20:36 34.63627 -119.80983 33837 ft 454 kts 310°
2026-04-20 20:36 34.65837 -119.83716 34295 ft 453 kts 310°
2026-04-20 20:36 34.68041 -119.86446 34692 ft 451 kts 310°
2026-04-20 20:36 34.70237 -119.89168 35083 ft 450 kts 310°
2026-04-20 20:37 34.72422 -119.91877 35450 ft 449 kts 309°
2026-04-20 20:37 34.74615 -119.94595 35775 ft 450 kts 309°
2026-04-20 20:37 34.76807 -119.97313 36053 ft 450 kts 310°
2026-04-20 20:37 34.78998 -120.00033 36384 ft 449 kts 309°
2026-04-20 20:38 34.81183 -120.02754 36701 ft 448 kts 309°
2026-04-20 20:38 34.83364 -120.05469 37034 ft 448 kts 309°
2026-04-20 20:38 34.85534 -120.08173 37355 ft 447 kts 309°
2026-04-20 20:38 34.87705 -120.10877 37672 ft 446 kts 309°
2026-04-20 20:39 34.89872 -120.13577 37986 ft 445 kts 309°
2026-04-20 20:39 34.92015 -120.16255 38057 ft 450 kts 309°
2026-04-20 20:39 34.96469 -120.21840 38059 ft 462 kts 309°
2026-04-20 20:40 35.00941 -120.27452 38066 ft 465 kts 309°
2026-04-20 20:40 35.05459 -120.33117 38065 ft 466 kts 309°
2026-04-20 20:41 35.09999 -120.38777 38063 ft 468 kts 311°
2026-04-20 20:41 35.14768 -120.44214 38088 ft 469 kts 313°
2026-04-20 20:42 35.19645 -120.49515 38084 ft 469 kts 313°
2026-04-20 20:42 35.24486 -120.54854 38093 ft 469 kts 313°
2026-04-20 20:43 35.29298 -120.60269 38088 ft 470 kts 312°
2026-04-20 20:43 35.34089 -120.65703 38090 ft 470 kts 312°
2026-04-20 20:44 35.38895 -120.71139 38083 ft 470 kts 313°
2026-04-20 20:44 35.43711 -120.76570 38079 ft 470 kts 313°
2026-04-20 20:45 35.48564 -120.81989 38081 ft 473 kts 316°
2026-04-20 20:45 35.53829 -120.86889 38102 ft 475 kts 319°
2026-04-20 20:46 35.59105 -120.91781 38091 ft 476 kts 319°
2026-04-20 20:46 35.64389 -120.96706 38097 ft 476 kts 318°
2026-04-20 20:47 35.69674 -121.01630 38097 ft 476 kts 318°
2026-04-20 20:47 35.74928 -121.06524 38096 ft 476 kts 318°
2026-04-20 20:48 35.77611 -121.09033 37990 ft 477 kts 318°
2026-04-20 20:48 35.80214 -121.11464 37560 ft 473 kts 318°
2026-04-20 20:48 35.82823 -121.13898 37097 ft 468 kts 318°
2026-04-20 20:48 35.85407 -121.16313 36565 ft 464 kts 318°
2026-04-20 20:49 35.87966 -121.18706 36023 ft 461 kts 318°
2026-04-20 20:49 35.90523 -121.21100 35495 ft 458 kts 318°
2026-04-20 20:49 35.93049 -121.23470 34950 ft 456 kts 318°
2026-04-20 20:49 35.95568 -121.25839 34410 ft 454 kts 318°
2026-04-20 20:50 35.98078 -121.28200 33843 ft 453 kts 318°
2026-04-20 20:50 36.00577 -121.30551 33289 ft 449 kts 318°
2026-04-20 20:50 36.03057 -121.32885 32769 ft 446 kts 317°
2026-04-20 20:50 36.05516 -121.35204 32234 ft 443 kts 317°
2026-04-20 20:51 36.08031 -121.37390 31729 ft 443 kts 322°
2026-04-20 20:51 36.10625 -121.39408 31235 ft 440 kts 322°
2026-04-20 20:51 36.13172 -121.41388 30767 ft 437 kts 322°
2026-04-20 20:51 36.15738 -121.43383 30300 ft 434 kts 322°
2026-04-20 20:52 36.18283 -121.45367 29794 ft 430 kts 322°
2026-04-20 20:52 36.20798 -121.47329 29356 ft 425 kts 322°
2026-04-20 20:52 36.23290 -121.49277 28901 ft 420 kts 322°
2026-04-20 20:52 36.25746 -121.51200 28491 ft 416 kts 321°
2026-04-20 20:53 36.28188 -121.53116 28076 ft 414 kts 321°
2026-04-20 20:53 36.30606 -121.55015 27634 ft 410 kts 321°
2026-04-20 20:53 36.33010 -121.56904 27191 ft 407 kts 321°
2026-04-20 20:53 36.35395 -121.58780 26772 ft 404 kts 321°
2026-04-20 20:54 36.37764 -121.60645 26331 ft 402 kts 320°
2026-04-20 20:54 36.40126 -121.62500 25895 ft 401 kts 320°
2026-04-20 20:54 36.42480 -121.64350 25440 ft 400 kts 320°
2026-04-20 20:54 36.44831 -121.66203 24980 ft 399 kts 320°
2026-04-20 20:55 36.47175 -121.68047 24491 ft 399 kts 320°
2026-04-20 20:55 36.49514 -121.69887 24014 ft 398 kts 320°
2026-04-20 20:55 36.51858 -121.71732 23511 ft 397 kts 320°
2026-04-20 20:55 36.54185 -121.73571 22996 ft 395 kts 319°
2026-04-20 20:56 36.56490 -121.75394 22520 ft 392 kts 320°
2026-04-20 20:56 36.58763 -121.77191 22059 ft 389 kts 320°
2026-04-20 20:56 36.61072 -121.79020 21600 ft 387 kts 320°
2026-04-20 20:56 36.63303 -121.80790 21175 ft 385 kts 319°
2026-04-20 20:57 36.65559 -121.82585 20680 ft 384 kts 319°
2026-04-20 20:57 36.67804 -121.84369 20242 ft 382 kts 319°
2026-04-20 20:57 36.70041 -121.86143 19809 ft 380 kts 320°
2026-04-20 20:57 36.72263 -121.87907 19411 ft 378 kts 320°
2026-04-20 20:58 36.74433 -121.89722 18973 ft 372 kts 314°
2026-04-20 20:58 36.76380 -121.91765 18780 ft 361 kts 311°
2026-04-20 20:58 36.78279 -121.93765 18405 ft 356 kts 311°
2026-04-20 20:58 36.80177 -121.95748 17867 ft 354 kts 311°
2026-04-20 20:59 36.82057 -121.97709 17362 ft 350 kts 312°
2026-04-20 20:59 36.83918 -121.99653 16966 ft 346 kts 312°
2026-04-20 20:59 36.85751 -122.01577 16589 ft 344 kts 312°
2026-04-20 20:59 36.87581 -122.03500 16207 ft 343 kts 313°
2026-04-20 21:00 36.89406 -122.05419 15813 ft 342 kts 313°
2026-04-20 21:00 36.91222 -122.07337 15443 ft 342 kts 313°
2026-04-20 21:00 36.92867 -122.09418 15109 ft 332 kts 300°
2026-04-20 21:00 36.94152 -122.11786 14748 ft 326 kts 293°
2026-04-20 21:01 36.95312 -122.14219 14384 ft 326 kts 292°
2026-04-20 21:01 36.96451 -122.16663 14032 ft 326 kts 292°
2026-04-20 21:01 36.97585 -122.19115 13657 ft 324 kts 292°
2026-04-20 21:01 36.98704 -122.21554 13264 ft 323 kts 292°
2026-04-20 21:02 36.99902 -122.23937 12872 ft 327 kts 304°
2026-04-20 21:02 37.01611 -122.25831 12618 ft 330 kts 318°
2026-04-20 21:02 37.03453 -122.27556 12358 ft 328 kts 318°
2026-04-20 21:02 37.05276 -122.29259 12111 ft 326 kts 318°
2026-04-20 21:03 37.07090 -122.30951 11847 ft 325 kts 318°
2026-04-20 21:03 37.08911 -122.32646 11599 ft 324 kts 318°
2026-04-20 21:03 37.10716 -122.34333 11348 ft 322 kts 318°
2026-04-20 21:03 37.12512 -122.36019 11122 ft 324 kts 318°
2026-04-20 21:04 37.14322 -122.37721 10867 ft 323 kts 318°
2026-04-20 21:04 37.16119 -122.39406 10625 ft 322 kts 318°
2026-04-20 21:04 37.17879 -122.41053 10376 ft 319 kts 318°
2026-04-20 21:04 37.19653 -122.42713 10157 ft 318 kts 318°
2026-04-20 21:05 37.21421 -122.44371 9928 ft 316 kts 318°
2026-04-20 21:05 37.23177 -122.46023 9814 ft 317 kts 317°
2026-04-20 21:05 37.24941 -122.47683 9676 ft 316 kts 317°
2026-04-20 21:05 37.26701 -122.49342 9553 ft 315 kts 317°
2026-04-20 21:06 37.28451 -122.50992 9427 ft 314 kts 317°
2026-04-20 21:06 37.30192 -122.52629 9295 ft 313 kts 317°
2026-04-20 21:06 37.31934 -122.54265 9165 ft 312 kts 317°
2026-04-20 21:06 37.33664 -122.55900 9038 ft 311 kts 317°
2026-04-20 21:07 37.35397 -122.57539 8759 ft 309 kts 317°
2026-04-20 21:07 37.37110 -122.59160 8346 ft 309 kts 317°
2026-04-20 21:07 37.38826 -122.60779 7946 ft 307 kts 318°
2026-04-20 21:07 37.40537 -122.62391 7529 ft 307 kts 317°
2026-04-20 21:08 37.42247 -122.64002 7169 ft 304 kts 318°
2026-04-20 21:08 37.43922 -122.65573 6863 ft 297 kts 318°
2026-04-20 21:08 37.45006 -122.66594 6701 ft 292 kts 318°
2026-04-20 21:08 37.46605 -122.68089 6574 ft 280 kts 317°
2026-04-20 21:09 37.48143 -122.69514 6453 ft 268 kts 318°
2026-04-20 21:09 37.49635 -122.70859 6324 ft 261 kts 323°
2026-04-20 21:09 37.51361 -122.71503 6185 ft 259 kts 357°
2026-04-20 21:09 37.53117 -122.71224 5990 ft 253 kts 11°
2026-04-20 21:10 37.54812 -122.70752 5699 ft 251 kts 13°
2026-04-20 21:10 37.56507 -122.70254 5405 ft 248 kts 13°
2026-04-20 21:10 37.58178 -122.69763 5101 ft 246 kts 12°
2026-04-20 21:10 37.59845 -122.69257 4812 ft 245 kts 13°
2026-04-20 21:11 37.61500 -122.68746 4550 ft 244 kts 13°
2026-04-20 21:11 37.63164 -122.68347 4270 ft 242 kts 359°
2026-04-20 21:11 37.64836 -122.68378 4062 ft 239 kts 353°
2026-04-20 21:11 37.66498 -122.68476 4017 ft 239 kts 353°
2026-04-20 21:12 37.68165 -122.68578 4019 ft 241 kts 353°
2026-04-20 21:12 37.69820 -122.68661 3997 ft 241 kts 360°
2026-04-20 21:12 37.71438 -122.68068 3795 ft 238 kts 33°
2026-04-20 21:12 37.72580 -122.66719 3729 ft 221 kts 62°
2026-04-20 21:13 37.73138 -122.64958 3719 ft 209 kts 89°
2026-04-20 21:13 37.73133 -122.63192 3684 ft 202 kts 104°
2026-04-20 21:13 37.72964 -122.61417 3619 ft 197 kts 112°
2026-04-20 21:13 37.72518 -122.59858 3582 ft 187 kts 127°
2026-04-20 21:14 37.71862 -122.58460 3465 ft 185 kts 131°
2026-04-20 21:14 37.71202 -122.57066 3251 ft 184 kts 131°
2026-04-20 21:14 37.70552 -122.55687 3015 ft 182 kts 131°
2026-04-20 21:14 37.69926 -122.54350 2782 ft 165 kts 131°
2026-04-20 21:15 37.69396 -122.53189 2549 ft 142 kts 133°
2026-04-20 21:15 37.68931 -122.52176 2373 ft 126 kts 135°
2026-04-20 21:15 37.68492 -122.51241 2192 ft 121 kts 135°
2026-04-20 21:15 37.68064 -122.50339 2039 ft 119 kts 134°
2026-04-20 21:16 37.67638 -122.49447 1884 ft 119 kts 134°
2026-04-20 21:16 37.67213 -122.48553 1705 ft 118 kts 132°
2026-04-20 21:16 37.66790 -122.47659 1551 ft 122 kts 130°
2026-04-20 21:16 37.66337 -122.46719 1362 ft 129 kts 133°
2026-04-20 21:17 37.65868 -122.45745 1178 ft 129 kts 126°
2026-04-20 21:17 37.65414 -122.44788 1013 ft 129 kts 127°
2026-04-20 21:17 37.64941 -122.43799 844 ft 131 kts 127°
2026-04-20 21:17 37.64471 -122.42808 665 ft 132 kts 124°
2026-04-20 21:18 37.63992 -122.41798 484 ft 138 kts 124°
2026-04-20 21:18 37.63498 -122.40763 330 ft 139 kts 123°
2026-04-20 21:18 37.63026 -122.39700 143 ft 138 kts 121°
2026-04-20 21:18 37.62583 -122.38649 30 ft 127 kts 119°
2026-04-20 21:19 37.62230 -122.37790 22 ft 87 kts 118°
2026-04-20 21:19 37.62022 -122.37311 22 ft 39 kts 117°
2026-04-20 21:19 37.61898 -122.37072 22 ft 23 kts 175°
2026-04-20 21:20 37.61688 -122.37212 23 ft 16 kts 208°
2026-04-20 21:20 37.61566 -122.37294 22 ft 26 kts 207°
2026-04-20 21:20 37.61401 -122.37403 24 ft 27 kts 208°
2026-04-20 21:20 37.61249 -122.37525 22 ft 25 kts 234°
2026-04-20 21:21 37.61251 -122.37727 22 ft 21 kts 297°
2026-04-20 21:21 37.61316 -122.37883 22 ft 21 kts 298°
2026-04-20 21:21 37.61385 -122.38045 22 ft 21 kts 298°
2026-04-20 21:21 37.61461 -122.38101 23 ft 11 kts 26°
2026-04-20 21:22 37.61531 -122.38084 22 ft 12 kts 326°
2026-04-20 21:22 37.61576 -122.38183 22 ft 14 kts 296°
2026-04-20 21:22 37.61598 -122.38295 22 ft 12 kts 250°
2026-04-20 21:22 37.61581 -122.38318 22 ft 0 kts 221°
2026-04-20 21:23 37.61575 -122.38325 24 ft 0 kts 223°
2026-04-20 21:23 37.61574 -122.38325 24 ft 0 kts 223°